EW5897 Weather Reports


Display with metric or nautical units.
time (UTC)temp
F
wind
direction
speed
MPH
gust
MPH
rain 1hr
in
rain 24hr
in
rain mn
in
humidity
%
barometer
mb
20260509084905 26 360 3.0 5.0 0.00 0.00 0.00 85 1010.6
20260509083347 27 360 3.0 5.0 0.00 0.00 0.00 84 1010.5
20260509081413 29 355 3.0 6.0 0.00 0.00 0.00 82 1010.3
20260509075155 30 339 2.0 5.0 0.00 0.00 0.00 83 1010.1
20260509073411 30 340 2.0 4.0 0.00 0.00 0.00 83 1009.9
20260509071853 30 315 2.0 5.0 0.00 0.00 0.00 84 1009.8
20260509065913 28 306 2.0 3.0 0.00 0.00 0.00 84 1009.4
20260509064413 30 306 2.0 3.0 0.00 0.00 0.00 82 1009.3
20260509062859 31 309 2.0 4.0 0.00 0.00 0.00 81 1009.2
20260509060912 34 305 3.0 6.0 0.00 0.00 0.00 80 1009.0
20260509054913 34 336 3.0 8.0 0.00 0.00 0.00 81 1008.8
20260509052916 34 329 3.0 5.0 0.00 0.00 0.00 81 1008.9
20260509051411 35 338 2.0 5.0 0.00 0.00 0.00 80 1008.7
20260509045904 35 340 3.0 5.0 0.00 0.00 0.00 80 1008.6
20260509044353 36 340 3.0 5.0 0.00 0.00 0.00 81 1008.7
20260509042412 37 348 3.0 8.0 0.00 0.00 0.00 79 1008.5
20260509040909 38 355 4.0 8.0 0.00 0.00 0.00 77 1008.4
20260509034904 40 340 4.0 6.0 0.00 0.00 0.00 76 1007.9
20260509032921 41 328 4.0 6.0 0.00 0.00 0.00 74 1007.6
20260509031401 42 320 5.0 9.0 0.00 0.00 0.00 72 1007.5
20260509025407 43 304 6.0 10.0 0.00 0.00 0.00 71 1007.1
20260509023414 44 309 4.0 9.0 0.00 0.00 0.00 69 1006.8
20260509021909 46 280 4.0 12.0 0.00 0.00 0.00 67 1006.3
20260509020358 48 292 11.0 16.0 0.00 0.00 0.00 63 1006.2
20260509014409 48 14 9.0 15.0 0.00 0.00 0.00 63 1006.1
20260509012857 49 278 11.0 17.0 0.00 0.00 0.00 61 1005.9
20260509010908 50 290 13.0 20.0 0.00 0.00 0.00 59 1005.6
20260509004914 51 281 11.0 20.0 0.00 0.00 0.00 58 1005.4
20260509003401 52 300 11.0 18.0 0.00 0.00 0.00 57 1005.2
20260509001853 52 308 12.0 20.0 0.00 0.00 0.00 56 1005.1
20260508235904 52 296 12.0 19.0 0.00 0.00 0.00 58 1004.9
20260508233909 53 9 12.0 21.0 0.00 0.00 0.00 59 1005.0
20260508231903 52 291 12.0 21.0 0.00 0.00 0.00 60 1005.2
20260508230358 52 280 13.0 25.0 0.00 0.00 0.00 62 1005.2
20260508224401 50 281 15.0 21.0 0.00 0.00 0.00 66 1005.5
20260508222408 50 277 13.0 24.0 0.00 0.00 0.00 69 1005.7
20260508220903 49 257 16.0 24.0 0.00 0.00 0.00 72 1005.8
20260508214914 47 241 8.0 13.0 0.00 0.00 0.00 79 1005.6
20260508213358 47 243 11.0 25.0 0.00 0.00 0.00 78 1006.1
20260508211854 50 267 16.0 25.0 0.00 0.00 0.00 66 1006.0
20260508205912 54 323 17.0 25.0 0.00 0.00 0.00 51 1005.2
20260508204356 57 286 17.0 26.0 0.00 0.00 0.00 45 1004.7
20260508202359 58 269 11.0 17.0 0.00 0.00 0.00 41 1004.1
20260508200408 58 275 10.0 15.0 0.00 0.00 0.00 41 1003.9
20260508194908 58 288 3.0 13.0 0.00 0.00 0.00 40 1003.8
20260508193405 59 268 8.0 12.0 0.00 0.00 0.00 41 1003.6
20260508191411 58 284 5.0 14.0 0.00 0.00 0.00 40 1003.7
20260508185859 58 19 8.0 15.0 0.00 0.00 0.00 42 1004.1
20260508183912 58 239 3.0 10.0 0.00 0.00 0.00 42 1004.2
20260508181904 56 296 7.0 15.0 0.00 0.00 0.00 44 1004.8
20260508180358 56 263 12.0 16.0 0.00 0.00 0.00 43 1005.1
20260508174359 55 300 6.0 12.0 0.00 0.00 0.00 43 1005.6
20260508172408 54 145 4.0 13.0 0.00 0.00 0.00 44 1005.6
20260508170905 54 224 5.0 12.0 0.00 0.00 0.00 43 1005.6
20260508164912 53 306 4.0 11.0 0.00 0.00 0.00 42 1006.0
20260508163406 53 310 7.0 12.0 0.00 0.00 0.00 43 1006.2
20260508161403 52 17 7.0 12.0 0.00 0.00 0.00 42 1006.4
20260508154913 52 302 10.0 16.0 0.00 0.00 0.00 43 1006.8
20260508152904 50 257 9.0 13.0 0.00 0.00 0.00 45 1006.8
20260508151400 50 285 7.0 13.0 0.00 0.00 0.00 45 1007.0
20260508145407 49 271 9.0 15.0 0.00 0.00 0.00 45 1007.2
20260508143856 49 259 8.0 15.0 0.00 0.00 0.00 46 1007.1
20260508141901 48 294 8.0 12.0 0.00 0.00 0.00 47 1007.0
20260508140400 47 319 6.0 11.0 0.00 0.00 0.00 47 1006.9
20260508134401 44 328 8.0 12.0 0.00 0.00 0.00 56 1007.0
20260508132859 42 327 6.0 10.0 0.00 0.00 0.00 67 1006.9
20260508130901 40 309 3.0 6.0 0.00 0.00 0.00 72 1006.9
20260508125356 40 329 3.0 8.0 0.00 0.00 0.00 75 1006.7
20260508123404 38 327 3.0 8.0 0.00 0.00 0.00 81 1006.8
20260508121412 38 317 4.0 9.0 0.00 0.00 0.00 82 1006.4
20260508115902 36 299 6.0 9.0 0.00 0.00 0.00 85 1006.2
20260508113915 32 279 4.0 6.0 0.00 0.00 0.00 87 1005.9
20260508111912 31 280 2.0 7.0 0.00 0.00 0.00 86 1005.7
20260508105908 33 269 2.0 4.0 0.00 0.00 0.00 85 1005.6
20260508104356 33 260 2.0 4.0 0.00 0.00 0.00 86 1005.4
20260508101908 31 261 3.0 4.0 0.00 0.00 0.00 88 1005.4
20260508100350 29 223 2.0 4.0 0.00 0.00 0.00 87 1005.2
20260508094408 29 217 2.0 4.0 0.00 0.00 0.00 85 1005.2
20260508092405 29 209 1.0 4.0 0.00 0.00 0.00 84 1005.2
20260508090903 31 211 1.0 3.0 0.00 0.00 0.00 82 1005.1